Terminal Aerodrome Forecast
Issued by NWS

Home | Current Version | Previous Version | Text Only | Print | Product List | Glossary On
Versions: 1 2 3 4 5 6 7 8 9 10 11 12 13
000
FTUS46 KSGX 221100
TAFPSP
TAF
KPSP 221120Z 2212/2312 VRB05KT P6SM SKC
     FM222200 32013KT P6SM SKC
     FM230400 VRB05KT P6SM FEW200=

USA.gov is the U.S. government's official web portal to all federal, state and local government web resources and services.